sat.trackr.live / text

‹ back to catalog

STARLINK-37033

NORAD 68959 · 2026-099J

PAYLOAD ACTIVE UNKNOWN

§ Identity

Operator
Country
US
Launch date
2026-05-01
Launch site
AFETR
Launch vehicle
Mass (kg)
RCS (m²)

Purposes: comms

External: N2YO · Heavens-Above · Gunter

§ Orbital elements

Epoch: 2026-05-25T04:00:03.998880Z

Period
92.95 min
Inclination
53.1588°
Eccentricity
0.0001343
Mean motion
15.49275138 rev/d
Perigee alt
417.9 km
Apogee alt
419.8 km
Semi-major
6,797.0 km
B*
1.4375e-3
RAAN
270.7763°
Arg perigee
53.8378°
Mean anomaly
252.0870°
Rev number
501

§ Raw data

STARLINK-370331 68959U 26099J   26145.16671295  .00080228  00000+0  14375-2 0  99992 68959  53.1588 270.7763 0001343  53.8378 252.0870 15.49275138  5011

JSON: /api/v1/satellites/68959 · /tle

For live sub-satellite position, see the globe view (requires WebGL).

§ Visibility from observer

Set your observer location to see the next 7 days of passes ≥ 10°. The values pass through the URL so the page stays shareable.

No JS? Fill the form by hand. The geolocation button needs JavaScript.